Location: Unspecified
(0.0000°N, 0.0000°E)
Time: 13:43:48
(UTC+00:00)

Starlink (trailer) - Visible Passes

Search period start: 24 August 2019 00:00
Search period end: 03 September 2019 00:00
Orbit: 549 x 551 km, 53.0° (Epoch: 23 August)

Date Brightness Start Highest point End Pass type
(mag) Time Alt. Az. Time Alt. Az. Time Alt. Az.
27 Aug 6.0 19:45:38 10° N 19:46:25 14° N 19:46:25 14° N visible
28 Aug 5.1 19:39:50 10° NNW 19:42:02 28° N 19:42:02 28° N visible
29 Aug 3.8 19:34:15 10° NNW 19:37:48 64° NNW 19:37:48 64° NNW visible
30 Aug 4.0 19:28:51 10° NW 19:32:56 61° SW 19:33:41 50° S visible
31 Aug 4.9 19:23:40 10° WNW 19:27:29 37° SW 19:29:41 21° S visible
01 Sep 5.8 19:18:45 10° WNW 19:22:03 23° SW 19:25:22 10° S visible
02 Sep 6.1 05:36:46 10° S 05:40:01 22° SE 05:43:15 10° ENE visible
02 Sep 6.4 19:14:14 10° W 19:16:37 15° SW 19:19:01 10° SSW visible
